Station Historical Data
Daily Summary for August 28, 2017 Units:  Metric    English   Both
« Previous Day
Next Day »
Daily Weekly Monthly Yearly Custom
  High: Low: Average:
Temperature: 24.6 °C 19.8 °C 21.9 °C
Dew Point: 17.9 °C 13.3 °C 15.2 °C
Humidity: 79% 54% 66%
Wind Speed: 3.2km/h 0km/h 0.3km/h
Wind Gust: 9.7km/h - -
Wind- - WNW
Pressure: 1017.5 hPa 1015.1 hPa -
Precipitation: 0 mm    
Historical Graphs
 
 
Tabular Data for August 28, 2017
Time Temperature Dew Point Pressure Wind Wind Speed Wind Gust Humidity Rainfall Rate (Hourly) Conditions
00:00 21.7 °C 17.9 °C 1017.2 hPa Calm     79% 0 mm BKN
00:05 21.7 °C 17.9 °C 1017.2 hPa Calm     79% 0 mm BKN
00:10 21.6 °C 17.8 °C 1017.2 hPa Calm     79% 0 mm BKN
00:15 21.6 °C 17.8 °C 1016.8 hPa Calm     79% 0 mm BKN
00:20 21.5 °C 17.5 °C 1017.2 hPa Calm     78% 0 mm FEW
00:25 21.5 °C 17.5 °C 1016.8 hPa Calm     78% 0 mm FEW
00:30 21.5 °C 17.5 °C 1017.2 hPa Calm   1.6 km/h 78% 0 mm FEW
00:35 21.5 °C 17.3 °C 1016.8 hPa Calm     77% 0 mm FEW
00:40 21.5 °C 17.1 °C 1016.8 hPa Calm   1.6 km/h 76% 0 mm FEW
00:45 21.6 °C 16.8 °C 1016.8 hPa Calm   1.6 km/h 74% 0 mm FEW
00:50 21.8 °C 16.7 °C 1016.8 hPa Calm   1.6 km/h 73% 0 mm FEW
00:55 21.9 °C 16.7 °C 1016.8 hPa Calm   1.6 km/h 72% 0 mm FEW
01:00 22 °C 16.5 °C 1016.8 hPa Calm   1.6 km/h 71% 0 mm FEW
01:10 22.1 °C 16.4 °C 1016.8 hPa Calm   1.6 km/h 70% 0 mm FEW
01:15 22.2 °C 16.4 °C 1016.8 hPa Calm     70% 0 mm FEW
01:20 22.1 °C 16.4 °C 1016.8 hPa Calm   1.6 km/h 70% 0 mm CLR
01:25 22.1 °C 16.3 °C 1016.8 hPa Calm   1.6 km/h 70% 0 mm CLR
01:30 22.1 °C 16.1 °C 1016.8 hPa Calm   1.6 km/h 69% 0 mm CLR
01:40 22.1 °C 16.1 °C 1016.8 hPa Calm   1.6 km/h 69% 0 mm CLR
01:45 22 °C 16.3 °C 1016.8 hPa Calm   1.6 km/h 70% 0 mm CLR
01:50 22 °C 16.1 °C 1016.8 hPa Calm   1.6 km/h 69% 0 mm CLR
01:55 22 °C 16.1 °C 1016.8 hPa Calm   1.6 km/h 69% 0 mm CLR
02:00 22 °C 16.1 °C 1016.8 hPa Calm   1.6 km/h 69% 0 mm CLR
02:10 22 °C 16.1 °C 1016.8 hPa Calm     69% 0 mm CLR
02:15 22 °C 16.1 °C 1016.8 hPa Calm     69% 0 mm CLR
02:20 21.9 °C 16 °C 1016.8 hPa Calm     69% 0 mm BKN
02:25 21.9 °C 16 °C 1016.8 hPa Calm     69% 0 mm BKN
02:30 21.9 °C 16 °C 1016.5 hPa Calm     69% 0 mm BKN
02:35 21.9 °C 15.9 °C 1016.5 hPa Calm     69% 0 mm BKN
02:40 21.9 °C 16.2 °C 1016.5 hPa Calm   1.6 km/h 70% 0 mm BKN
02:45 21.8 °C 15.9 °C 1016.5 hPa Calm   1.6 km/h 69% 0 mm BKN
02:50 21.9 °C 16.2 °C 1016.5 hPa Calm   1.6 km/h 70% 0 mm BKN
02:55 21.8 °C 16.1 °C 1016.5 hPa Calm   3.2 km/h 70% 0 mm BKN
03:00 21.8 °C 16.1 °C 1016.5 hPa Calm   3.2 km/h 70% 0 mm BKN
03:10 21.7 °C 15.9 °C 1016.5 hPa Calm   1.6 km/h 70% 0 mm BKN
03:15 21.6 °C 16.1 °C 1016.5 hPa WNW 1.6 km/h 3.2 km/h 71% 0 mm BKN
03:20 21.6 °C 15.9 °C 1016.5 hPa Calm   3.2 km/h 70% 0 mm BKN
03:25 21.6 °C 16.1 °C 1016.5 hPa Calm   1.6 km/h 71% 0 mm BKN
03:30 21.5 °C 16 °C 1016.5 hPa Calm   1.6 km/h 71% 0 mm BKN
03:40 21.4 °C 15.9 °C 1016.5 hPa Calm   3.2 km/h 71% 0 mm BKN
03:50 21.4 °C 15.9 °C 1016.5 hPa Calm   1.6 km/h 71% 0 mm BKN
03:55 21.3 °C 16.1 °C 1016.5 hPa Calm   1.6 km/h 72% 0 mm BKN
04:00 21.3 °C 16 °C 1016.5 hPa Calm   1.6 km/h 72% 0 mm BKN
04:10 21.2 °C 15.7 °C 1016.5 hPa Calm   1.6 km/h 71% 0 mm BKN
04:15 21.2 °C 15.7 °C 1016.5 hPa Calm   1.6 km/h 71% 0 mm BKN
04:20 21.2 °C 15.7 °C 1016.5 hPa Calm   4.8 km/h 71% 0 mm FEW
04:25 21.1 °C 15.7 °C 1016.5 hPa Calm   3.2 km/h 71% 0 mm FEW
04:30 21.1 °C 15.8 °C 1016.5 hPa Calm   1.6 km/h 72% 0 mm FEW
04:35 21.1 °C 15.8 °C 1016.1 hPa Calm   1.6 km/h 72% 0 mm FEW
04:40 21 °C 15.6 °C 1016.1 hPa Calm   3.2 km/h 71% 0 mm FEW
04:45 21 °C 15.8 °C 1016.1 hPa Calm   1.6 km/h 72% 0 mm FEW
04:50 20.9 °C 15.5 °C 1016.5 hPa Calm   1.6 km/h 71% 0 mm FEW
04:55 20.9 °C 15.7 °C 1016.1 hPa Calm   1.6 km/h 72% 0 mm FEW
05:00 20.9 °C 15.7 °C 1016.1 hPa Calm   1.6 km/h 72% 0 mm FEW
05:05 20.8 °C 15.6 °C 1016.1 hPa Calm   1.6 km/h 72% 0 mm FEW
05:10 20.8 °C 15.6 °C 1016.5 hPa Calm   3.2 km/h 72% 0 mm FEW
05:15 20.8 °C 15.6 °C 1016.5 hPa Calm   1.6 km/h 72% 0 mm FEW
05:20 20.7 °C 15.5 °C 1016.5 hPa Calm   1.6 km/h 72% 0 mm CLR
05:25 20.7 °C 15.4 °C 1016.5 hPa Calm   3.2 km/h 72% 0 mm CLR
05:30 20.6 °C 15.4 °C 1016.5 hPa Calm   3.2 km/h 72% 0 mm CLR
05:35 20.6 °C 15.4 °C 1016.5 hPa West 1.6 km/h 3.2 km/h 72% 0 mm CLR
05:40 20.6 °C 15.4 °C 1016.5 hPa Calm   1.6 km/h 72% 0 mm CLR
05:50 20.5 °C 15.3 °C 1016.8 hPa Calm   1.6 km/h 72% 0 mm CLR
05:55 20.4 °C 15.2 °C 1016.5 hPa Calm   1.6 km/h 72% 0 mm CLR
06:00 20.4 °C 15.2 °C 1016.8 hPa Calm   3.2 km/h 72% 0 mm CLR
06:05 20.4 °C 15.2 °C 1016.8 hPa West 1.6 km/h 3.2 km/h 72% 0 mm CLR
06:10 20.3 °C 15.1 °C 1016.8 hPa Calm   1.6 km/h 72% 0 mm CLR
06:15 20.3 °C 15.1 °C 1016.8 hPa Calm   3.2 km/h 72% 0 mm CLR
06:20 20.3 °C 15.1 °C 1016.8 hPa Calm   1.6 km/h 72% 0 mm FEW
06:25 20.2 °C 15.2 °C 1016.8 hPa Calm   1.6 km/h 73% 0 mm FEW
06:30 20.2 °C 15.2 °C 1016.8 hPa Calm   1.6 km/h 73% 0 mm FEW
06:35 20.2 °C 15.2 °C 1016.8 hPa WNW 1.6 km/h 1.6 km/h 73% 0 mm FEW
06:40 20.1 °C 14.9 °C 1016.8 hPa Calm   1.6 km/h 72% 0 mm FEW
06:45 20.1 °C 15.1 °C 1016.8 hPa Calm   1.6 km/h 73% 0 mm FEW
06:50 20.1 °C 14.8 °C 1016.8 hPa Calm   3.2 km/h 72% 0 mm FEW
06:55 20.1 °C 14.6 °C 1017.2 hPa Calm   3.2 km/h 71% 0 mm FEW
07:00 20.1 °C 14.4 °C 1017.2 hPa WNW 1.6 km/h 3.2 km/h 70% 0 mm FEW
07:10 20.1 °C 14.4 °C 1017.2 hPa Calm   4.8 km/h 70% 0 mm FEW
07:15 20.1 °C 14.4 °C 1017.2 hPa WNW 1.6 km/h 3.2 km/h 70% 0 mm FEW
07:20 20.1 °C 14.4 °C 1017.2 hPa Calm   1.6 km/h 70% 0 mm BKN
07:30 20 °C 14.1 °C 1017.2 hPa WNW 1.6 km/h 3.2 km/h 69% 0 mm BKN
07:40 20 °C 14.2 °C 1017.2 hPa WNW 1.6 km/h 4.8 km/h 69% 0 mm BKN
07:45 20 °C 14.1 °C 1017.2 hPa WNW 1.6 km/h 4.8 km/h 69% 0 mm BKN
07:50 20 °C 14.1 °C 1017.2 hPa WNW 1.6 km/h 3.2 km/h 69% 0 mm BKN
07:55 19.9 °C 13.8 °C 1017.2 hPa West 1.6 km/h 3.2 km/h 68% 0 mm BKN
08:00 19.9 °C 14.1 °C 1017.2 hPa Calm   8 km/h 69% 0 mm BKN
08:05 19.9 °C 13.8 °C 1017.2 hPa West 1.6 km/h 3.2 km/h 68% 0 mm BKN
08:10 19.9 °C 14.1 °C 1017.2 hPa WNW 1.6 km/h 8 km/h 69% 0 mm BKN
08:15 19.9 °C 13.8 °C 1017.5 hPa WNW 3.2 km/h 8 km/h 68% 0 mm BKN
08:20 19.9 °C 14.1 °C 1017.5 hPa Calm   3.2 km/h 69% 0 mm BKN
08:25 19.9 °C 14.1 °C 1017.5 hPa Calm   1.6 km/h 69% 0 mm BKN
08:30 19.9 °C 13.8 °C 1017.5 hPa Calm   4.8 km/h 68% 0 mm BKN
08:35 19.9 °C 13.8 °C 1017.5 hPa West 1.6 km/h 3.2 km/h 68% 0 mm BKN
08:40 19.9 °C 13.8 °C 1017.2 hPa Calm   4.8 km/h 68% 0 mm BKN
08:45 19.9 °C 13.6 °C 1017.5 hPa Calm   3.2 km/h 67% 0 mm BKN
08:50 19.9 °C 13.8 °C 1017.5 hPa West 1.6 km/h 1.6 km/h 68% 0 mm BKN
08:55 19.8 °C 13.5 °C 1017.5 hPa West 1.6 km/h 3.2 km/h 67% 0 mm BKN
09:05 19.9 °C 13.6 °C 1017.5 hPa WNW 1.6 km/h 3.2 km/h 67% 0 mm BKN
09:10 19.9 °C 13.6 °C 1017.5 hPa Calm   4.8 km/h 67% 0 mm BKN
09:15 20 °C 13.7 °C 1017.5 hPa Calm   8 km/h 67% 0 mm BKN
09:20 20 °C 13.9 °C 1017.5 hPa Calm   3.2 km/h 68% 0 mm BKN
09:25 20.1 °C 13.7 °C 1017.5 hPa WNW 1.6 km/h 3.2 km/h 67% 0 mm BKN
09:30 20.1 °C 13.6 °C 1017.5 hPa West 1.6 km/h 3.2 km/h 66% 0 mm BKN
09:35 20.2 °C 13.8 °C 1017.5 hPa Calm   8 km/h 67% 0 mm BKN
09:40 20.2 °C 13.6 °C 1017.5 hPa West 3.2 km/h 8 km/h 66% 0 mm BKN
09:45 20.2 °C 13.7 °C 1017.5 hPa West 3.2 km/h 9.7 km/h 66% 0 mm BKN
09:50 20.3 °C 13.9 °C 1017.5 hPa Calm   1.6 km/h 67% 0 mm BKN
09:55 20.4 °C 13.9 °C 1017.5 hPa WNW 1.6 km/h 3.2 km/h 66% 0 mm BKN
10:01 20.6 °C 14 °C 1017.5 hPa WNW 1.6 km/h 4.8 km/h 66% 0 mm BKN
10:10 20.7 °C 13.7 °C 1017.5 hPa Calm   4.8 km/h 64% 0 mm BKN
10:20 20.8 °C 13.5 °C 1017.5 hPa West 1.6 km/h 3.2 km/h 63% 0 mm BKN
10:35 21.4 °C 14.1 °C 1017.2 hPa Calm   3.2 km/h 63% 0 mm BKN
10:40 21.5 °C 13.9 °C 1017.2 hPa WNW 1.6 km/h 3.2 km/h 62% 0 mm BKN
10:45 21.3 °C 13.5 °C 1017.2 hPa West 1.6 km/h 4.8 km/h 61% 0 mm BKN
10:50 21.3 °C 13.4 °C 1017.2 hPa West 3.2 km/h 8 km/h 61% 0 mm BKN
10:55 21.2 °C 13.7 °C 1017.2 hPa West 1.6 km/h 3.2 km/h 62% 0 mm BKN
11:00 21.3 °C 13.9 °C 1017.2 hPa West 1.6 km/h 3.2 km/h 63% 0 mm BKN
11:05 21.4 °C 14.3 °C 1017.2 hPa Calm   3.2 km/h 64% 0 mm BKN
11:10 21.4 °C 13.8 °C 1017.2 hPa Calm   4.8 km/h 62% 0 mm BKN
11:15 21.4 °C 13.6 °C 1017.5 hPa WNW 1.6 km/h 4.8 km/h 61% 0 mm BKN
11:20 21.4 °C 13.3 °C 1017.5 hPa NW 1.6 km/h 4.8 km/h 60% 0 mm BKN
11:30 21.4 °C 13.8 °C 1017.2 hPa Calm   4.8 km/h 62% 0 mm BKN
11:40 21.8 °C 13.7 °C 1017.2 hPa Calm   4.8 km/h 60% 0 mm BKN
11:45 22 °C 14.1 °C 1017.2 hPa NNW 1.6 km/h 3.2 km/h 61% 0 mm BKN
11:50 22.4 °C 14.2 °C 1016.8 hPa NNW 1.6 km/h 4.8 km/h 60% 0 mm BKN
11:55 22.7 °C 14.3 °C 1016.8 hPa NW 1.6 km/h 3.2 km/h 59% 0 mm BKN
12:00 22.8 °C 14.2 °C 1016.8 hPa WNW 1.6 km/h 4.8 km/h 58% 0 mm BKN
12:05 23.1 °C 13.8 °C 1016.8 hPa WNW 1.6 km/h 8 km/h 56% 0 mm BKN
12:10 23.1 °C 13.8 °C 1017.2 hPa WNW 3.2 km/h 8 km/h 56% 0 mm BKN
12:15 22.9 °C 14.2 °C 1017.2 hPa WNW 1.6 km/h 8 km/h 58% 0 mm BKN
12:20 22.8 °C 14.4 °C 1017.2 hPa Calm   4.8 km/h 59% 0 mm BKN
12:25 22.8 °C 13.9 °C 1016.8 hPa WNW 1.6 km/h 4.8 km/h 57% 0 mm BKN
12:30 22.8 °C 14.1 °C 1017.2 hPa Calm   4.8 km/h 58% 0 mm BKN
12:35 22.8 °C 14.6 °C 1017.2 hPa WNW 1.6 km/h 1.6 km/h 60% 0 mm BKN
12:40 22.8 °C 14.4 °C 1017.2 hPa Calm   3.2 km/h 59% 0 mm BKN
12:45 22.8 °C 14.3 °C 1017.2 hPa Calm   3.2 km/h 59% 0 mm BKN
12:50 22.7 °C 14.6 °C 1017.2 hPa Calm   3.2 km/h 60% 0 mm BKN
12:55 22.8 °C 14.6 °C 1017.2 hPa Calm   3.2 km/h 60% 0 mm BKN
13:00 22.8 °C 14.4 °C 1017.2 hPa West 1.6 km/h 4.8 km/h 59% 0 mm BKN
13:05 22.7 °C 14.6 °C 1017.2 hPa Calm   3.2 km/h 60% 0 mm BKN
13:10 22.8 °C 14.9 °C 1017.2 hPa Calm   3.2 km/h 61% 0 mm BKN
13:15 22.8 °C 14.7 °C 1017.2 hPa WNW 1.6 km/h 3.2 km/h 60% 0 mm BKN
13:20 22.9 °C 14.7 °C 1016.8 hPa NW 1.6 km/h 1.6 km/h 60% 0 mm OVC
13:30 22.9 °C 14.8 °C 1016.5 hPa WNW 1.6 km/h 1.6 km/h 60% 0 mm OVC
13:40 22.9 °C 14.4 °C 1016.5 hPa WNW 3.2 km/h 8 km/h 59% 0 mm OVC
13:45 22.8 °C 14.7 °C 1016.5 hPa Calm   1.6 km/h 60% 0 mm OVC
13:50 22.8 °C 14.9 °C 1016.5 hPa Calm   3.2 km/h 61% 0 mm OVC
13:55 22.8 °C 14.6 °C 1016.5 hPa Calm   3.2 km/h 60% 0 mm OVC
14:00 22.7 °C 14.6 °C 1016.5 hPa Calm   1.6 km/h 60% 0 mm OVC
14:05 22.8 °C 15.4 °C 1016.5 hPa Calm     63% 0 mm OVC
14:10 22.8 °C 15.2 °C 1016.5 hPa Calm   3.2 km/h 62% 0 mm OVC
14:15 22.9 °C 15.2 °C 1016.5 hPa Calm   1.6 km/h 62% 0 mm OVC
14:20 22.9 °C 14.7 °C 1016.5 hPa Calm   4.8 km/h 60% 0 mm OVC
14:25 22.9 °C 14.9 °C 1016.5 hPa Calm   3.2 km/h 61% 0 mm OVC
14:30 22.9 °C 14.8 °C 1016.5 hPa WNW 1.6 km/h 3.2 km/h 60% 0 mm OVC
14:40 23.3 °C 15.1 °C 1016.5 hPa Calm   3.2 km/h 60% 0 mm OVC
14:45 23.6 °C 14.8 °C 1016.5 hPa Calm   4.8 km/h 58% 0 mm OVC
14:50 23.9 °C 15.1 °C 1016.5 hPa Calm   3.2 km/h 58% 0 mm OVC
14:55 24 °C 14.7 °C 1016.5 hPa Calm   1.6 km/h 56% 0 mm OVC
15:00 24.1 °C 15 °C 1016.1 hPa WNW 1.6 km/h 3.2 km/h 57% 0 mm OVC
15:10 24.2 °C 14.8 °C 1016.1 hPa Calm   8 km/h 56% 0 mm OVC
15:15 24.1 °C 15.1 °C 1016.1 hPa Calm   3.2 km/h 57% 0 mm OVC
15:20 24.2 °C 15.1 °C 1016.1 hPa Calm   3.2 km/h 57% 0 mm BKN
15:25 24.3 °C 15.8 °C 1016.1 hPa Calm   4.8 km/h 59% 0 mm BKN
15:30 24.4 °C 15.9 °C 1016.1 hPa Calm   1.6 km/h 59% 0 mm BKN
15:35 24.4 °C 15.4 °C 1016.1 hPa NW 1.6 km/h 1.6 km/h 57% 0 mm BKN
15:40 24.4 °C 15.1 °C 1015.8 hPa Calm   3.2 km/h 56% 0 mm BKN
15:45 24.4 °C 15.4 °C 1015.8 hPa Calm   1.6 km/h 57% 0 mm BKN
15:55 24.4 °C 15.6 °C 1015.8 hPa Calm   4.8 km/h 58% 0 mm BKN
16:00 24.4 °C 15.6 °C 1015.8 hPa Calm     58% 0 mm BKN
16:05 24.6 °C 15.2 °C 1015.8 hPa Calm   3.2 km/h 56% 0 mm BKN
16:10 24.6 °C 15.5 °C 1015.5 hPa NNE 1.6 km/h 1.6 km/h 57% 0 mm BKN
16:15 24.6 °C 15.2 °C 1015.5 hPa Calm   1.6 km/h 56% 0 mm BKN
16:20 24.5 °C 14.6 °C 1015.5 hPa Calm   3.2 km/h 54% 0 mm BKN
16:25 24.4 °C 14.8 °C 1015.5 hPa Calm   1.6 km/h 55% 0 mm BKN
16:30 24.4 °C 15.8 °C 1015.5 hPa Calm   1.6 km/h 59% 0 mm BKN
16:40 24.4 °C 15.4 °C 1015.5 hPa WSW 1.6 km/h 1.6 km/h 57% 0 mm BKN
16:45 24.3 °C 15 °C 1015.5 hPa Calm   3.2 km/h 56% 0 mm BKN
16:50 24.3 °C 14.7 °C 1015.5 hPa Calm   3.2 km/h 55% 0 mm BKN
16:55 24.3 °C 15.5 °C 1015.5 hPa Calm   1.6 km/h 58% 0 mm BKN
17:00 24.2 °C 15.1 °C 1015.5 hPa Calm   1.6 km/h 57% 0 mm BKN
17:05 24.1 °C 15.3 °C 1015.5 hPa Calm   1.6 km/h 58% 0 mm BKN
17:10 24.1 °C 15.3 °C 1015.5 hPa Calm   1.6 km/h 58% 0 mm BKN
17:15 24 °C 15.2 °C 1015.5 hPa Calm   3.2 km/h 58% 0 mm BKN
17:20 24 °C 15.5 °C 1015.5 hPa Calm   3.2 km/h 59% 0 mm BKN
17:25 24.1 °C 15.6 °C 1015.5 hPa Calm   1.6 km/h 59% 0 mm BKN
17:30 24.1 °C 15.6 °C 1015.5 hPa Calm     59% 0 mm BKN
17:45 23.8 °C 15.6 °C 1015.5 hPa Calm   1.6 km/h 60% 0 mm BKN
17:50 23.8 °C 15.3 °C 1015.1 hPa Calm   3.2 km/h 59% 0 mm BKN
17:55 23.8 °C 15.3 °C 1015.1 hPa Calm   4.8 km/h 59% 0 mm BKN
18:00 23.8 °C 15 °C 1015.5 hPa Calm   8 km/h 58% 0 mm BKN
18:10 23.7 °C 15.5 °C 1015.5 hPa Calm   1.6 km/h 60% 0 mm BKN
18:15 23.7 °C 15.9 °C 1015.5 hPa Calm   1.6 km/h 62% 0 mm BKN
18:20 23.5 °C 15.6 °C 1015.5 hPa Calm   3.2 km/h 61% 0 mm BKN
18:25 23.4 °C 14.9 °C 1015.5 hPa Calm   3.2 km/h 59% 0 mm BKN
18:30 23.3 °C 15.6 °C 1015.5 hPa Calm   1.6 km/h 62% 0 mm BKN
18:40 23.1 °C 15.7 °C 1015.5 hPa Calm   1.6 km/h 63% 0 mm BKN
18:45 23.1 °C 15.9 °C 1015.5 hPa Calm     64% 0 mm BKN
18:50 23.1 °C 15.6 °C 1015.5 hPa Calm   3.2 km/h 63% 0 mm BKN
18:55 23 °C 15.8 °C 1015.5 hPa Calm   1.6 km/h 64% 0 mm BKN
19:00 22.9 °C 15.5 °C 1015.5 hPa Calm     63% 0 mm BKN
19:05 22.9 °C 15.5 °C 1015.5 hPa Calm     63% 0 mm BKN
19:10 22.8 °C 15.7 °C 1015.5 hPa Calm     64% 0 mm BKN
19:15 22.8 °C 15.9 °C 1015.8 hPa Calm     65% 0 mm BKN
19:20 22.7 °C 15.6 °C 1015.5 hPa Calm     64% 0 mm BKN
19:25 22.7 °C 15.8 °C 1015.5 hPa Calm   1.6 km/h 65% 0 mm BKN
19:30 22.7 °C 16 °C 1015.8 hPa Calm     66% 0 mm BKN
19:35 22.6 °C 15.9 °C 1015.5 hPa Calm     66% 0 mm BKN
19:40 22.6 °C 16.2 °C 1015.5 hPa Calm     67% 0 mm BKN
19:45 22.5 °C 16.1 °C 1015.8 hPa Calm     67% 0 mm BKN
19:50 22.4 °C 15.9 °C 1015.5 hPa Calm     67% 0 mm BKN
19:55 22.3 °C 16.1 °C 1015.5 hPa Calm     68% 0 mm BKN
20:00 22.2 °C 16.1 °C 1015.5 hPa Calm     68% 0 mm BKN
20:05 22.2 °C 16.2 °C 1015.5 hPa Calm     69% 0 mm BKN
20:10 22.1 °C 16.2 °C 1015.5 hPa Calm     69% 0 mm BKN
20:15 22.1 °C 16.3 °C 1015.5 hPa Calm     70% 0 mm BKN
20:20 22 °C 16.3 °C 1015.5 hPa Calm     70% 0 mm BKN
20:25 21.9 °C 16.2 °C 1015.5 hPa Calm     70% 0 mm BKN
20:30 21.9 °C 16.4 °C 1015.5 hPa Calm     71% 0 mm BKN
20:35 21.8 °C 16.3 °C 1015.8 hPa Calm     71% 0 mm BKN
20:40 21.8 °C 16.5 °C 1015.8 hPa Calm     72% 0 mm BKN
20:45 21.7 °C 16.2 °C 1015.8 hPa Calm     71% 0 mm BKN
20:50 21.6 °C 16.1 °C 1015.5 hPa Calm     71% 0 mm BKN
20:55 21.6 °C 16.1 °C 1015.5 hPa Calm     71% 0 mm BKN
21:00 21.6 °C 16.1 °C 1015.5 hPa Calm     71% 0 mm BKN
21:10 21.5 °C 16.2 °C 1015.5 hPa Calm     72% 0 mm BKN
21:15 21.4 °C 15.9 °C 1015.5 hPa Calm     71% 0 mm BKN
21:20 21.4 °C 15.9 °C 1015.5 hPa Calm     71% 0 mm BKN
21:25 21.4 °C 15.9 °C 1015.5 hPa Calm     71% 0 mm BKN
21:30 21.3 °C 15.8 °C 1015.5 hPa Calm     71% 0 mm BKN
21:35 21.3 °C 15.8 °C 1015.8 hPa Calm     71% 0 mm BKN
21:40 21.2 °C 15.8 °C 1015.5 hPa Calm     71% 0 mm BKN
21:45 21.2 °C 15.7 °C 1015.5 hPa Calm     71% 0 mm BKN
21:50 21.1 °C 15.6 °C 1015.5 hPa Calm     71% 0 mm BKN
21:55 21 °C 15.8 °C 1015.5 hPa Calm     72% 0 mm BKN
22:00 20.9 °C 15.9 °C 1015.5 hPa Calm     73% 0 mm BKN
22:10 20.9 °C 15.9 °C 1015.8 hPa Calm     73% 0 mm BKN
22:15 20.8 °C 15.4 °C 1015.8 hPa Calm     71% 0 mm BKN
22:20 20.8 °C 15.6 °C 1015.8 hPa Calm     72% 0 mm BKN
22:25 20.8 °C 15.6 °C 1015.8 hPa Calm     72% 0 mm BKN
22:30 20.8 °C 15.6 °C 1016.1 hPa Calm     72% 0 mm BKN
22:35 20.8 °C 15.3 °C 1016.1 hPa Calm     71% 0 mm BKN
22:40 20.8 °C 15.3 °C 1016.1 hPa Calm     71% 0 mm BKN
22:45 20.8 °C 15.3 °C 1016.1 hPa Calm     71% 0 mm BKN
22:50 20.8 °C 15.6 °C 1016.1 hPa Calm     72% 0 mm BKN
22:55 20.7 °C 15.3 °C 1016.1 hPa Calm     71% 0 mm BKN
23:00 20.8 °C 15.1 °C 1015.8 hPa Calm   1.6 km/h 70% 0 mm BKN
23:10 20.8 °C 14.9 °C 1015.8 hPa Calm     69% 0 mm BKN
23:25 20.9 °C 14.8 °C 1015.8 hPa Calm   3.2 km/h 68% 0 mm BKN
23:30 21.1 °C 14.9 °C 1015.8 hPa Calm     68% 0 mm BKN
23:40 21.2 °C 14.8 °C 1015.8 hPa Calm   1.6 km/h 67% 0 mm BKN
23:45 21.2 °C 14.8 °C 1015.8 hPa Calm   1.6 km/h 67% 0 mm BKN
23:50 21.3 °C 14.7 °C 1015.8 hPa Calm   3.2 km/h 66% 0 mm BKN
23:55 21.3 °C 14.7 °C 1015.5 hPa Calm   1.6 km/h 66% 0 mm BKN
Piedmont Bend
Compliments of Weather Underground - 4 mb